Time,TemperatureF,DewpointF,PressureIn,WindDirection,WindDirectionDegrees,WindSpeedMPH,WindSpeedGustMPH,Humidity,HourlyPrecipIn,Conditions,Clouds,dailyrainin,SoftwareType,DateUTC
2013-04-07 00:04:00,62.5,45.7,29.79,WNW,295,2.0,4.0,54,0.00,,SKC,0.00,VWS V12.07,2013-04-07 05:04:00,
2013-04-07 00:10:00,62.4,45.5,29.79,NW,316,1.0,7.0,54,0.00,,SKC,0.00,VWS V12.07,2013-04-07 05:10:00,
2013-04-07 00:17:00,62.1,45.3,29.79,WNW,299,4.0,7.0,54,0.00,,SKC,0.00,VWS V12.07,2013-04-07 05:17:00,
2013-04-07 00:22:00,61.9,45.1,29.80,West,279,0.0,7.0,54,0.00,,SKC,0.00,VWS V12.07,2013-04-07 05:22:00,
2013-04-07 00:27:00,61.5,45.2,29.80,NW,308,2.0,7.0,55,0.00,,SKC,0.00,VWS V12.07,2013-04-07 05:27:00,
2013-04-07 00:34:00,61.2,44.9,29.80,WNW,293,0.0,2.0,55,0.00,,SKC,0.00,VWS V12.07,2013-04-07 05:34:00,
2013-04-07 00:40:00,60.9,45.1,29.80,West,276,0.0,2.0,56,0.00,,SKC,0.00,VWS V12.07,2013-04-07 05:40:00,
2013-04-07 00:47:00,60.3,45.0,29.80,West,275,0.0,2.0,57,0.00,,SKC,0.00,VWS V12.07,2013-04-07 05:47:00,
2013-04-07 00:54:00,59.7,44.9,29.80,West,276,0.0,2.0,58,0.00,,SKC,0.00,VWS V12.07,2013-04-07 05:54:00,
2013-04-07 01:01:00,59.0,44.3,29.80,West,276,0.0,0.0,58,0.00,,SKC,0.00,VWS V12.07,2013-04-07 06:01:00,
2013-04-07 01:06:00,58.3,44.5,29.80,West,276,0.0,0.0,60,0.00,,SKC,0.00,VWS V12.07,2013-04-07 06:06:00,
2013-04-07 01:12:00,58.1,44.7,29.80,West,276,0.0,0.0,61,0.00,,SKC,0.00,VWS V12.07,2013-04-07 06:12:00,
2013-04-07 01:17:00,58.2,44.4,29.80,West,276,0.0,1.0,60,0.00,,SKC,0.00,VWS V12.07,2013-04-07 06:17:00,
2013-04-07 01:24:00,58.2,44.4,29.80,West,276,0.0,1.0,60,0.00,,SKC,0.00,VWS V12.07,2013-04-07 06:24:00,
2013-04-07 01:31:00,58.0,44.6,29.81,West,280,0.0,0.0,61,0.00,,SKC,0.00,VWS V12.07,2013-04-07 06:31:00,
2013-04-07 01:36:00,57.8,44.5,29.81,West,271,0.0,1.0,61,0.00,,SKC,0.00,VWS V12.07,2013-04-07 06:36:00,
2013-04-07 01:41:00,57.6,44.3,29.81,West,271,0.0,1.0,61,0.00,,SKC,0.00,VWS V12.07,2013-04-07 06:41:00,
2013-04-07 01:47:00,57.3,44.4,29.81,West,271,0.0,1.0,62,0.00,,SKC,0.00,VWS V12.07,2013-04-07 06:47:00,
2013-04-07 01:54:00,56.9,44.5,29.82,West,271,0.0,1.0,63,0.00,,SKC,0.00,VWS V12.07,2013-04-07 06:54:00,
2013-04-07 02:00:00,56.8,43.9,29.82,West,271,0.0,1.0,62,0.00,,SKC,0.00,VWS V12.07,2013-04-07 07:00:00,
2013-04-07 02:06:00,56.6,44.2,29.81,SSW,205,0.0,1.0,63,0.00,,SKC,0.00,VWS V12.07,2013-04-07 07:06:00,
2013-04-07 02:11:00,56.5,44.1,29.82,SSW,205,0.0,1.0,63,0.00,,SKC,0.00,VWS V12.07,2013-04-07 07:11:00,
2013-04-07 02:17:00,56.2,44.2,29.82,SSW,205,0.0,1.0,64,0.00,,SKC,0.00,VWS V12.07,2013-04-07 07:17:00,
2013-04-07 02:24:00,55.9,44.3,29.82,SW,235,0.0,1.0,65,0.00,,SKC,0.00,VWS V12.07,2013-04-07 07:24:00,
2013-04-07 02:30:00,55.6,44.4,29.82,SW,233,0.0,1.0,66,0.00,,SKC,0.00,VWS V12.07,2013-04-07 07:30:00,
2013-04-07 02:37:00,56.0,44.4,29.82,West,259,0.0,0.0,65,0.00,,SKC,0.00,VWS V12.07,2013-04-07 07:37:00,
2013-04-07 02:44:00,56.0,44.4,29.82,WSW,258,0.0,0.0,65,0.00,,SKC,0.00,VWS V12.07,2013-04-07 07:44:00,
2013-04-07 02:50:00,56.0,44.4,29.82,WSW,258,0.0,0.0,65,0.00,,SKC,0.00,VWS V12.07,2013-04-07 07:50:00,
2013-04-07 02:57:00,55.3,44.2,29.82,West,259,0.0,0.0,66,0.00,,SKC,0.00,VWS V12.07,2013-04-07 07:57:00,
2013-04-07 03:04:00,54.7,44.0,29.82,WSW,258,0.0,0.0,67,0.00,,SKC,0.00,VWS V12.07,2013-04-07 08:04:00,
2013-04-07 03:10:00,55.3,44.2,29.82,NNE,22,0.0,0.0,66,0.00,,SKC,0.00,VWS V12.07,2013-04-07 08:10:00,
2013-04-07 03:16:00,55.1,44.0,29.83,NNE,22,0.0,0.0,66,0.00,,SKC,0.00,VWS V12.07,2013-04-07 08:16:00,
2013-04-07 03:24:00,54.8,44.1,29.84,NNE,22,0.0,0.0,67,0.00,,SKC,0.00,VWS V12.07,2013-04-07 08:24:00,
2013-04-07 03:30:00,54.5,43.8,29.84,NNE,23,0.0,1.0,67,0.00,,SKC,0.00,VWS V12.07,2013-04-07 08:30:00,
2013-04-07 03:36:00,53.9,43.6,29.84,NNE,23,0.0,0.0,68,0.00,,SKC,0.00,VWS V12.07,2013-04-07 08:36:00,
2013-04-07 03:42:00,53.4,43.1,29.84,NNE,23,0.0,0.0,68,0.00,,SKC,0.00,VWS V12.07,2013-04-07 08:42:00,
2013-04-07 03:47:00,53.0,43.5,29.84,NNE,23,0.0,0.0,70,0.00,,SKC,0.00,VWS V12.07,2013-04-07 08:47:00,
2013-04-07 03:54:00,52.7,43.6,29.84,NNE,23,0.0,0.0,71,0.00,,SKC,0.00,VWS V12.07,2013-04-07 08:54:00,
2013-04-07 04:00:00,52.9,43.8,29.84,NNE,23,0.0,0.0,71,0.00,,SKC,0.00,VWS V12.07,2013-04-07 09:00:00,
2013-04-07 04:06:00,53.4,43.9,29.85,NNE,23,0.0,0.0,70,0.00,,SKC,0.00,VWS V12.07,2013-04-07 09:06:00,
2013-04-07 04:11:00,53.5,44.0,29.85,NNE,23,0.0,0.0,70,0.00,,SKC,0.00,VWS V12.07,2013-04-07 09:11:00,
2013-04-07 04:16:00,53.6,43.7,29.85,NNE,23,0.0,1.0,69,0.00,,SKC,0.00,VWS V12.07,2013-04-07 09:16:00,
2013-04-07 04:21:00,53.3,43.4,29.85,NNE,23,0.0,1.0,69,0.00,,SKC,0.00,VWS V12.07,2013-04-07 09:21:00,
2013-04-07 04:27:00,53.0,43.5,29.86,NNE,23,0.0,1.0,70,0.00,,SKC,0.00,VWS V12.07,2013-04-07 09:27:00,
2013-04-07 04:34:00,52.0,42.9,29.86,NNE,23,0.0,0.0,71,0.00,,SKC,0.00,VWS V12.07,2013-04-07 09:34:00,
2013-04-07 04:40:00,51.3,43.0,29.86,NNE,23,0.0,0.0,73,0.00,,SKC,0.00,VWS V12.07,2013-04-07 09:40:00,
2013-04-07 04:46:00,51.5,43.1,29.87,NNE,23,0.0,0.0,73,0.00,,SKC,0.00,VWS V12.07,2013-04-07 09:46:00,
2013-04-07 04:52:00,51.5,43.1,29.87,NNE,23,0.0,0.0,73,0.00,,SKC,0.00,VWS V12.07,2013-04-07 09:52:00,
2013-04-07 04:57:00,51.4,43.0,29.87,NNE,23,0.0,0.0,73,0.00,,SKC,0.00,VWS V12.07,2013-04-07 09:57:00,
2013-04-07 05:04:00,51.1,43.1,29.87,NNE,23,0.0,0.0,74,0.00,,SKC,0.00,VWS V12.07,2013-04-07 10:04:00,
2013-04-07 05:10:00,51.0,43.0,29.87,NNE,23,0.0,0.0,74,0.00,,SKC,0.00,VWS V12.07,2013-04-07 10:10:00,
2013-04-07 05:16:00,51.0,43.0,29.88,NNE,23,0.0,0.0,74,0.00,,SKC,0.00,VWS V12.07,2013-04-07 10:16:00,
2013-04-07 05:24:00,51.1,43.1,29.88,NNE,27,0.0,1.0,74,0.00,,SKC,0.00,VWS V12.07,2013-04-07 10:24:00,
2013-04-07 05:30:00,50.9,42.9,29.88,NE,36,0.0,1.0,74,0.00,,SKC,0.00,VWS V12.07,2013-04-07 10:30:00,
2013-04-07 05:36:00,50.5,42.9,29.88,NE,36,0.0,0.0,75,0.00,,SKC,0.00,VWS V12.07,2013-04-07 10:36:00,
2013-04-07 05:41:00,50.0,42.4,29.88,NE,36,0.0,0.0,75,0.00,,SKC,0.00,VWS V12.07,2013-04-07 10:41:00,
2013-04-07 05:46:00,49.4,42.2,29.89,NE,36,0.0,0.0,76,0.00,,SKC,0.00,VWS V12.07,2013-04-07 10:46:00,
2013-04-07 05:51:00,49.0,42.5,29.89,NE,37,0.0,0.0,78,0.00,,SKC,0.00,VWS V12.07,2013-04-07 10:51:00,
2013-04-07 05:57:00,48.9,42.3,29.89,ENE,61,0.0,1.0,78,0.00,,SKC,0.00,VWS V12.07,2013-04-07 10:57:00,
2013-04-07 06:04:00,49.0,42.5,29.89,ENE,63,0.0,1.0,78,0.00,,SKC,0.00,VWS V12.07,2013-04-07 11:04:00,
2013-04-07 06:10:00,49.0,42.8,29.89,ENE,62,0.0,1.0,79,0.00,,SKC,0.00,VWS V12.07,2013-04-07 11:10:00,
2013-04-07 06:17:00,48.9,42.7,29.89,ENE,63,0.0,1.0,79,0.00,,SKC,0.00,VWS V12.07,2013-04-07 11:17:00,
2013-04-07 06:24:00,49.0,42.8,29.89,ENE,65,0.0,1.0,79,0.00,,SKC,0.00,VWS V12.07,2013-04-07 11:24:00,
2013-04-07 06:30:00,48.8,42.6,29.89,ENE,68,0.0,1.0,79,0.00,,SKC,0.00,VWS V12.07,2013-04-07 11:30:00,
2013-04-07 06:37:00,49.1,43.2,29.89,East,95,0.0,1.0,80,0.00,,SKC,0.00,VWS V12.07,2013-04-07 11:37:00,
2013-04-07 06:44:00,49.5,43.3,29.89,East,86,0.0,1.0,79,0.00,,SKC,0.00,VWS V12.07,2013-04-07 11:44:00,
2013-04-07 06:50:00,49.6,43.4,29.89,ESE,116,1.0,2.0,79,0.00,,SKC,0.00,VWS V12.07,2013-04-07 11:50:00,
2013-04-07 06:56:00,49.6,43.0,29.90,ESE,113,1.0,2.0,78,0.00,,SKC,0.00,VWS V12.07,2013-04-07 11:56:00,
2013-04-07 07:01:00,49.6,43.0,29.90,ESE,115,0.0,0.0,78,0.00,,SKC,0.00,VWS V12.07,2013-04-07 12:01:00,
2013-04-07 07:07:00,49.8,43.2,29.90,ESE,115,0.0,0.0,78,0.00,,SKC,0.00,VWS V12.07,2013-04-07 12:07:00,
2013-04-07 07:14:00,50.5,43.6,29.90,ESE,114,0.0,0.0,77,0.00,,SKC,0.00,VWS V12.07,2013-04-07 12:14:00,
2013-04-07 07:20:00,51.1,43.8,29.90,ESE,113,0.0,0.0,76,0.00,,SKC,0.00,VWS V12.07,2013-04-07 12:20:00,
2013-04-07 07:26:00,51.3,43.7,29.90,ESE,113,0.0,0.0,75,0.00,,SKC,0.00,VWS V12.07,2013-04-07 12:26:00,
2013-04-07 07:32:00,51.5,43.8,29.90,ESE,112,0.0,0.0,75,0.00,,SKC,0.00,VWS V12.07,2013-04-07 12:32:00,
2013-04-07 07:37:00,52.0,44.0,29.90,NE,36,0.0,0.0,74,0.00,,SKC,0.00,VWS V12.07,2013-04-07 12:37:00,
2013-04-07 07:44:00,52.5,44.1,29.90,East,84,0.0,1.0,73,0.00,,SKC,0.00,VWS V12.07,2013-04-07 12:44:00,
2013-04-07 07:50:00,53.0,44.2,29.90,ENE,67,0.0,2.0,72,0.00,,SKC,0.00,VWS V12.07,2013-04-07 12:50:00,
2013-04-07 07:57:00,53.4,44.2,29.90,SE,125,0.0,4.0,71,0.00,,SKC,0.00,VWS V12.07,2013-04-07 12:57:00,
2013-04-07 08:04:00,53.8,44.3,29.90,ESE,110,0.0,3.0,70,0.00,,SKC,0.00,VWS V12.07,2013-04-07 13:04:00,
2013-04-07 08:10:00,54.2,43.9,29.90,ENE,78,2.0,4.0,68,0.00,,SKC,0.00,VWS V12.07,2013-04-07 13:10:00,
2013-04-07 08:17:00,54.4,43.7,29.90,ENE,60,2.0,5.0,67,0.00,,SKC,0.00,VWS V12.07,2013-04-07 13:17:00,
2013-04-07 08:24:00,55.0,44.3,29.90,ENE,67,1.0,5.0,67,0.00,,SKC,0.00,VWS V12.07,2013-04-07 13:24:00,
2013-04-07 08:30:00,55.8,44.6,29.91,ENE,67,0.0,5.0,66,0.00,,SKC,0.00,VWS V12.07,2013-04-07 13:30:00,
2013-04-07 08:36:00,55.9,44.3,29.90,ENE,73,3.0,4.0,65,0.00,,SKC,0.00,VWS V12.07,2013-04-07 13:36:00,
2013-04-07 08:41:00,56.0,43.6,29.90,East,85,1.0,6.0,63,0.00,,SKC,0.00,VWS V12.07,2013-04-07 13:41:00,
2013-04-07 08:47:00,56.6,44.2,29.90,NE,36,2.0,6.0,63,0.00,,SKC,0.00,VWS V12.07,2013-04-07 13:47:00,
2013-04-07 08:54:00,57.5,45.0,29.90,SE,138,0.0,6.0,63,0.00,,SKC,0.00,VWS V12.07,2013-04-07 13:54:00,
2013-04-07 09:00:00,58.0,43.8,29.90,East,86,2.0,6.0,59,0.00,,SKC,0.00,VWS V12.07,2013-04-07 14:00:00,
2013-04-07 09:06:00,58.3,43.6,29.90,East,96,1.0,7.0,58,0.00,,SKC,0.00,VWS V12.07,2013-04-07 14:06:00,
2013-04-07 09:11:00,58.7,43.5,29.90,SE,125,6.0,8.0,57,0.00,,SKC,0.00,VWS V12.07,2013-04-07 14:11:00,
2013-04-07 09:16:00,59.2,42.6,29.90,ENE,70,5.0,8.0,54,0.00,,SKC,0.00,VWS V12.07,2013-04-07 14:16:00,
2013-04-07 09:21:00,59.3,42.2,29.90,NE,39,1.0,8.0,53,0.00,,SKC,0.00,VWS V12.07,2013-04-07 14:21:00,
2013-04-07 09:27:00,59.5,41.9,29.90,ENE,67,1.0,8.0,52,0.00,,SKC,0.00,VWS V12.07,2013-04-07 14:27:00,
2013-04-07 09:34:00,59.9,42.2,29.90,ENE,72,3.0,6.0,52,0.00,,SKC,0.00,VWS V12.07,2013-04-07 14:34:00,
2013-04-07 09:40:00,61.1,42.8,29.90,ENE,71,4.0,6.0,51,0.00,,SKC,0.00,VWS V12.07,2013-04-07 14:40:00,
2013-04-07 09:46:00,61.4,43.1,29.90,NNE,23,0.0,6.0,51,0.00,,SKC,0.00,VWS V12.07,2013-04-07 14:46:00,
2013-04-07 09:54:00,62.3,44.5,29.90,East,98,3.0,7.0,52,0.00,,SKC,0.00,VWS V12.07,2013-04-07 14:54:00,
2013-04-07 10:00:00,62.6,43.7,29.90,SSE,148,2.0,7.0,50,0.00,,SKC,0.00,VWS V12.07,2013-04-07 15:00:00,
2013-04-07 10:06:00,63.2,43.7,29.90,SE,132,4.0,6.0,49,0.00,,SKC,0.00,VWS V12.07,2013-04-07 15:06:00,
2013-04-07 10:11:00,63.2,44.3,29.90,East,90,4.0,6.0,50,0.00,,SKC,0.00,VWS V12.07,2013-04-07 15:11:00,
2013-04-07 10:16:00,63.3,43.8,29.90,East,92,6.0,8.0,49,0.00,,SKC,0.00,VWS V12.07,2013-04-07 15:16:00,
2013-04-07 10:21:00,63.5,44.5,29.91,SSE,152,6.0,8.0,50,0.00,,SKC,0.00,VWS V12.07,2013-04-07 15:21:00,
2013-04-07 10:26:00,63.9,44.4,29.91,ESE,110,4.0,8.0,49,0.00,,SKC,0.00,VWS V12.07,2013-04-07 15:26:00,
2013-04-07 10:32:00,64.2,44.1,29.91,SE,142,4.0,5.0,48,0.00,,SKC,0.00,VWS V12.07,2013-04-07 15:32:00,
2013-04-07 10:37:00,64.7,44.0,29.91,SE,143,4.0,6.0,47,0.00,,SKC,0.00,VWS V12.07,2013-04-07 15:37:00,
2013-04-07 10:45:00,65.3,44.6,29.91,ESE,107,6.0,7.0,47,0.00,,SKC,0.00,VWS V12.07,2013-04-07 15:45:00,
2013-04-07 10:50:00,65.4,45.2,29.91,SSE,148,1.0,7.0,48,0.00,,SKC,0.00,VWS V12.07,2013-04-07 15:50:00,
2013-04-07 10:56:00,65.8,45.0,29.91,SE,132,0.0,8.0,47,0.00,,SKC,0.00,VWS V12.07,2013-04-07 15:56:00,
2013-04-07 11:01:00,66.0,45.2,29.91,East,92,4.0,8.0,47,0.00,,SKC,0.00,VWS V12.07,2013-04-07 16:01:00,
2013-04-07 11:08:00,66.0,45.8,29.92,WSW,257,0.0,8.0,48,0.00,,SKC,0.00,VWS V12.07,2013-04-07 16:08:00,
2013-04-07 11:15:00,67.2,46.3,29.92,SSE,167,1.0,8.0,47,0.00,,SKC,0.00,VWS V12.07,2013-04-07 16:15:00,
2013-04-07 11:20:00,67.5,46.0,29.92,SE,139,1.0,8.0,46,0.00,,SKC,0.00,VWS V12.07,2013-04-07 16:20:00,
2013-04-07 11:26:00,67.6,46.1,29.92,SE,134,3.0,8.0,46,0.00,,SKC,0.00,VWS V12.07,2013-04-07 16:26:00,
2013-04-07 11:31:00,67.9,45.8,29.92,SE,134,2.0,6.0,45,0.00,,SKC,0.00,VWS V12.07,2013-04-07 16:31:00,
2013-04-07 11:37:00,67.9,45.8,29.92,East,101,4.0,6.0,45,0.00,,SKC,0.00,VWS V12.07,2013-04-07 16:37:00,
2013-04-07 11:44:00,67.9,46.4,29.92,SE,134,1.0,6.0,46,0.00,,SKC,0.00,VWS V12.07,2013-04-07 16:44:00,
2013-04-07 11:50:00,68.5,46.9,29.92,SE,131,5.0,6.0,46,0.00,,SKC,0.00,VWS V12.07,2013-04-07 16:50:00,
2013-04-07 11:57:00,69.4,47.2,29.92,ESE,108,4.0,6.0,45,0.00,,SKC,0.00,VWS V12.07,2013-04-07 16:57:00,
2013-04-07 12:04:00,69.6,46.8,29.91,ENE,75,4.0,5.0,44,0.00,,SKC,0.00,VWS V12.07,2013-04-07 17:04:00,
2013-04-07 12:10:00,69.6,46.8,29.91,SE,134,3.0,7.0,44,0.00,,SKC,0.00,VWS V12.07,2013-04-07 17:10:00,
2013-04-07 12:16:00,70.1,47.8,29.91,SW,225,3.0,7.0,45,0.00,,SKC,0.00,VWS V12.07,2013-04-07 17:16:00,
2013-04-07 12:21:00,70.7,47.1,29.91,SE,142,4.0,7.0,43,0.00,,SKC,0.00,VWS V12.07,2013-04-07 17:21:00,
2013-04-07 12:28:00,70.4,46.9,29.91,East,79,3.0,7.0,43,0.00,,SKC,0.00,VWS V12.07,2013-04-07 17:28:00,
2013-04-07 12:34:00,71.0,46.8,29.90,WSW,249,1.0,5.0,42,0.00,,SKC,0.00,VWS V12.07,2013-04-07 17:34:00,
2013-04-07 12:40:00,71.4,46.5,29.90,ESE,110,4.0,6.0,41,0.00,,SKC,0.00,VWS V12.07,2013-04-07 17:40:00,
2013-04-07 12:46:00,72.3,47.3,29.90,SSE,153,3.0,6.0,41,0.00,,SKC,0.00,VWS V12.07,2013-04-07 17:46:00,
2013-04-07 12:51:00,71.9,47.6,29.90,SSW,210,4.0,6.0,42,0.00,,SKC,0.00,VWS V12.07,2013-04-07 17:51:00,
2013-04-07 12:57:00,72.2,47.9,29.90,East,85,4.0,7.0,42,0.00,,SKC,0.00,VWS V12.07,2013-04-07 17:57:00,
2013-04-07 13:02:00,72.5,48.1,29.90,SE,132,1.0,9.0,42,0.00,,SKC,0.00,VWS V12.07,2013-04-07 18:02:00,
2013-04-07 13:07:00,72.4,48.0,29.89,ENE,77,0.0,10.0,42,0.00,,SKC,0.00,VWS V12.07,2013-04-07 18:07:00,
2013-04-07 13:14:00,72.7,47.7,29.89,SW,227,4.0,10.0,41,0.00,,SKC,0.00,VWS V12.07,2013-04-07 18:14:00,
2013-04-07 13:20:00,73.0,47.9,29.89,South,181,6.0,10.0,41,0.00,,SKC,0.00,VWS V12.07,2013-04-07 18:20:00,
2013-04-07 13:26:00,73.6,47.8,29.89,ESE,117,2.0,10.0,40,0.00,,SKC,0.00,VWS V12.07,2013-04-07 18:26:00,
2013-04-07 13:31:00,73.7,46.5,29.89,SW,232,2.0,5.0,38,0.00,,SKC,0.00,VWS V12.07,2013-04-07 18:31:00,
2013-04-07 13:36:00,73.8,48.0,29.89,SSW,204,0.0,6.0,40,0.00,,SKC,0.00,VWS V12.07,2013-04-07 18:36:00,
2013-04-07 13:44:00,74.1,48.3,29.88,SE,138,7.0,7.0,40,0.00,,SKC,0.00,VWS V12.07,2013-04-07 18:44:00,
2013-04-07 13:50:00,73.9,48.1,29.88,SE,126,4.0,7.0,40,0.00,,SKC,0.00,VWS V12.07,2013-04-07 18:50:00,
2013-04-07 13:56:00,74.1,48.3,29.88,ESE,120,0.0,7.0,40,0.00,,SKC,0.00,VWS V12.07,2013-04-07 18:56:00,
2013-04-07 14:01:00,74.2,47.7,29.88,ESE,123,7.0,7.0,39,0.00,,SKC,0.00,VWS V12.07,2013-04-07 19:01:00,
2013-04-07 14:07:00,74.4,47.2,29.88,SW,224,0.0,7.0,38,0.00,,SKC,0.00,VWS V12.07,2013-04-07 19:07:00,
2013-04-07 14:14:00,74.0,47.5,29.87,SE,146,4.0,7.0,39,0.00,,SKC,0.00,VWS V12.07,2013-04-07 19:14:00,
2013-04-07 14:20:00,74.0,47.5,29.87,SE,146,3.0,7.0,39,0.00,,SKC,0.00,VWS V12.07,2013-04-07 19:20:00,
2013-04-07 14:26:00,74.1,47.6,29.87,SE,135,3.0,7.0,39,0.00,,SKC,0.00,VWS V12.07,2013-04-07 19:26:00,
2013-04-07 14:32:00,74.1,48.3,29.87,ESE,123,2.0,3.0,40,0.00,,SKC,0.00,VWS V12.07,2013-04-07 19:32:00,
2013-04-07 14:37:00,74.2,49.0,29.87,South,170,0.0,6.0,41,0.00,,SKC,0.00,VWS V12.07,2013-04-07 19:37:00,
2013-04-07 14:47:00,74.6,47.3,29.87,SSW,203,2.0,6.0,38,0.00,,SKC,0.00,VWS V12.07,2013-04-07 19:47:00,
2013-04-07 14:54:00,74.7,45.3,29.87,South,169,4.0,6.0,35,0.00,,SKC,0.00,VWS V12.07,2013-04-07 19:54:00,
2013-04-07 15:00:00,74.3,44.9,29.86,SW,218,4.0,10.0,35,0.00,,SKC,0.00,VWS V12.07,2013-04-07 20:00:00,
2013-04-07 15:06:00,74.2,44.8,29.86,SE,125,3.0,5.0,35,0.00,,SKC,0.00,VWS V12.07,2013-04-07 20:06:00,
2013-04-07 15:11:00,74.4,45.0,29.86,SE,136,5.0,6.0,35,0.00,,SKC,0.00,VWS V12.07,2013-04-07 20:11:00,
2013-04-07 15:17:00,74.4,45.7,29.86,SW,219,1.0,11.0,36,0.00,,SKC,0.00,VWS V12.07,2013-04-07 20:17:00,
2013-04-07 15:24:00,74.6,46.6,29.86,SSE,159,2.0,11.0,37,0.00,,SKC,0.00,VWS V12.07,2013-04-07 20:24:00,
2013-04-07 15:30:00,75.6,46.8,29.85,SW,232,4.0,11.0,36,0.00,,SKC,0.00,VWS V12.07,2013-04-07 20:30:00,
2013-04-07 15:36:00,75.6,46.0,29.85,North,349,1.0,8.0,35,0.00,,SKC,0.00,VWS V12.07,2013-04-07 20:36:00,
2013-04-07 15:42:00,75.8,46.2,29.85,SE,128,4.0,8.0,35,0.00,,SKC,0.00,VWS V12.07,2013-04-07 20:42:00,
2013-04-07 15:47:00,75.8,45.5,29.85,WSW,240,1.0,8.0,34,0.00,,SKC,0.00,VWS V12.07,2013-04-07 20:47:00,
2013-04-07 15:51:00,76.4,46.8,29.84,SW,228,2.0,8.0,35,0.00,,SKC,0.00,VWS V12.07,2013-04-07 20:51:00,
2013-04-07 15:57:00,77.0,46.5,29.84,WSW,243,4.0,10.0,34,0.00,,SKC,0.00,VWS V12.07,2013-04-07 20:57:00,
2013-04-07 16:04:00,76.8,45.5,29.84,South,170,6.0,10.0,33,0.00,,SKC,0.00,VWS V12.07,2013-04-07 21:04:00,
2013-04-07 16:10:00,75.8,45.5,29.84,SSE,153,5.0,10.0,34,0.00,,SKC,0.00,VWS V12.07,2013-04-07 21:10:00,
2013-04-07 16:17:00,75.1,45.6,29.84,ESE,116,3.0,10.0,35,0.00,,SKC,0.00,VWS V12.07,2013-04-07 21:17:00,
2013-04-07 16:22:00,75.8,47.0,29.83,SSW,212,6.0,10.0,36,0.00,,SKC,0.00,VWS V12.07,2013-04-07 21:22:00,
2013-04-07 16:27:00,76.7,45.5,29.83,SE,141,5.0,10.0,33,0.00,,SKC,0.00,VWS V12.07,2013-04-07 21:27:00,
2013-04-07 16:34:00,76.7,46.2,29.83,SSE,150,2.0,7.0,34,0.00,,SKC,0.00,VWS V12.07,2013-04-07 21:34:00,
2013-04-07 16:40:00,77.0,47.3,29.83,SE,134,4.0,8.0,35,0.00,,SKC,0.00,VWS V12.07,2013-04-07 21:40:00,
2013-04-07 16:46:00,76.7,44.7,29.83,SE,127,6.0,9.0,32,0.00,,SKC,0.00,VWS V12.07,2013-04-07 21:46:00,
2013-04-07 16:51:00,76.4,45.2,29.82,SSE,150,3.0,9.0,33,0.00,,SKC,0.00,VWS V12.07,2013-04-07 21:51:00,
2013-04-07 16:57:00,76.5,45.3,29.82,SSE,150,6.0,9.0,33,0.00,,SKC,0.00,VWS V12.07,2013-04-07 21:57:00,
2013-04-07 17:04:00,76.3,46.7,29.82,East,91,2.0,9.0,35,0.00,,SKC,0.00,VWS V12.07,2013-04-07 22:04:00,
2013-04-07 17:10:00,76.3,46.7,29.81,ESE,103,11.0,11.0,35,0.00,,SKC,0.00,VWS V12.07,2013-04-07 22:10:00,
2013-04-07 17:16:00,76.1,48.0,29.82,SSE,152,4.0,11.0,37,0.00,,SKC,0.00,VWS V12.07,2013-04-07 22:16:00,
2013-04-07 17:22:00,75.8,47.7,29.81,SE,128,9.0,12.0,37,0.00,,SKC,0.00,VWS V12.07,2013-04-07 22:22:00,
2013-04-07 17:27:00,75.8,47.0,29.81,SSE,163,5.0,12.0,36,0.00,,SKC,0.00,VWS V12.07,2013-04-07 22:27:00,
2013-04-07 17:34:00,75.4,48.0,29.81,ESE,113,7.0,9.0,38,0.00,,SKC,0.00,VWS V12.07,2013-04-07 22:34:00,
2013-04-07 17:40:00,75.6,47.5,29.81,SSE,156,7.0,11.0,37,0.00,,SKC,0.00,VWS V12.07,2013-04-07 22:40:00,
2013-04-07 17:48:00,75.5,48.1,29.80,SE,128,7.0,11.0,38,0.00,,SKC,0.00,VWS V12.07,2013-04-07 22:48:00,
2013-04-07 17:54:00,74.4,47.2,29.80,SE,143,5.0,12.0,38,0.00,,SKC,0.00,VWS V12.07,2013-04-07 22:54:00,
2013-04-07 18:00:00,74.0,47.5,29.80,SE,128,5.0,12.0,39,0.00,,SKC,0.00,VWS V12.07,2013-04-07 23:00:00,
2013-04-07 18:07:00,73.7,46.5,29.80,ESE,103,4.0,11.0,38,0.00,,SKC,0.00,VWS V12.07,2013-04-07 23:07:00,
2013-04-07 18:14:00,73.5,47.0,29.80,ESE,108,5.0,11.0,39,0.00,,SKC,0.00,VWS V12.07,2013-04-07 23:14:00,
2013-04-07 18:20:00,73.5,46.4,29.80,ESE,105,6.0,12.0,38,0.00,,SKC,0.00,VWS V12.07,2013-04-07 23:20:00,
2013-04-07 18:26:00,73.3,46.9,29.79,ESE,103,2.0,12.0,39,0.00,,SKC,0.00,VWS V12.07,2013-04-07 23:26:00,
2013-04-07 18:31:00,73.0,47.3,29.79,SE,134,4.0,6.0,40,0.00,,SKC,0.00,VWS V12.07,2013-04-07 23:31:00,
2013-04-07 18:37:00,72.6,46.9,29.79,East,101,4.0,6.0,40,0.00,,SKC,0.00,VWS V12.07,2013-04-07 23:37:00,
2013-04-07 18:44:00,71.9,47.0,29.79,ESE,118,3.0,6.0,41,0.00,,SKC,0.00,VWS V12.07,2013-04-07 23:44:00,
2013-04-07 18:50:00,71.6,46.7,29.80,SE,125,3.0,6.0,41,0.00,,SKC,0.00,VWS V12.07,2013-04-07 23:50:00,
2013-04-07 18:56:00,71.3,45.8,29.79,SE,129,4.0,8.0,40,0.00,,SKC,0.00,VWS V12.07,2013-04-07 23:56:00,
2013-04-07 19:01:00,71.2,45.7,29.79,SE,126,2.0,6.0,40,0.00,,SKC,0.00,VWS V12.07,2013-04-08 00:01:00,
2013-04-07 19:07:00,71.0,45.5,29.79,SE,141,3.0,6.0,40,0.00,,SKC,0.00,VWS V12.07,2013-04-08 00:07:00,
2013-04-07 19:15:00,70.8,44.6,29.79,SE,136,3.0,12.0,39,0.00,,SKC,0.00,VWS V12.07,2013-04-08 00:15:00,
2013-04-07 19:20:00,70.4,44.3,29.79,ESE,120,3.0,12.0,39,0.00,,SKC,0.00,VWS V12.07,2013-04-08 00:20:00,
2013-04-07 19:26:00,70.1,44.0,29.79,SE,134,6.0,12.0,39,0.00,,SKC,0.00,VWS V12.07,2013-04-08 00:26:00,
2013-04-07 19:34:00,69.9,43.8,29.79,SE,136,3.0,7.0,39,0.00,,SKC,0.00,VWS V12.07,2013-04-08 00:34:00,
2013-04-07 19:40:00,69.6,43.6,29.78,ESE,109,3.0,7.0,39,0.00,,SKC,0.00,VWS V12.07,2013-04-08 00:40:00,
2013-04-07 19:46:00,69.1,43.1,29.78,SE,125,4.0,7.0,39,0.00,,SKC,0.00,VWS V12.07,2013-04-08 00:46:00,
2013-04-07 19:51:00,68.8,43.5,29.78,SE,125,3.0,7.0,40,0.00,,SKC,0.00,VWS V12.07,2013-04-08 00:51:00,
2013-04-07 19:58:00,68.5,43.2,29.78,SE,129,3.0,7.0,40,0.00,,SKC,0.00,VWS V12.07,2013-04-08 00:58:00,
2013-04-07 20:04:00,68.4,43.2,29.78,SE,125,3.0,4.0,40,0.00,,SKC,0.00,VWS V12.07,2013-04-08 01:04:00,
2013-04-07 20:10:00,68.4,43.2,29.78,ESE,112,4.0,5.0,40,0.00,,SKC,0.00,VWS V12.07,2013-04-08 01:10:00,
2013-04-07 20:16:00,68.3,43.1,29.78,SE,125,3.0,5.0,40,0.00,,SKC,0.00,VWS V12.07,2013-04-08 01:16:00,
2013-04-07 20:22:00,68.2,43.6,29.78,ESE,115,4.0,5.0,41,0.00,,SKC,0.00,VWS V12.07,2013-04-08 01:22:00,
2013-04-07 20:27:00,68.2,43.6,29.78,SE,136,3.0,5.0,41,0.00,,SKC,0.00,VWS V12.07,2013-04-08 01:27:00,
2013-04-07 20:34:00,67.9,43.4,29.78,SE,125,3.0,5.0,41,0.00,,SKC,0.00,VWS V12.07,2013-04-08 01:34:00,
2013-04-07 20:40:00,68.0,44.1,29.78,ESE,107,4.0,7.0,42,0.00,,SKC,0.00,VWS V12.07,2013-04-08 01:40:00,
2013-04-07 20:49:00,68.2,44.9,29.78,ESE,117,4.0,9.0,43,0.00,,SKC,0.00,VWS V12.07,2013-04-08 01:49:00,
2013-04-07 20:56:00,68.3,45.0,29.78,SE,145,5.0,9.0,43,0.00,,SKC,0.00,VWS V12.07,2013-04-08 01:56:00,
2013-04-07 21:01:00,68.2,45.5,29.78,SE,129,8.0,10.0,44,0.00,,SKC,0.00,VWS V12.07,2013-04-08 02:01:00,
2013-04-07 21:07:00,68.3,45.6,29.77,ESE,116,5.0,12.0,44,0.00,,SKC,0.00,VWS V12.07,2013-04-08 02:07:00,
2013-04-07 21:14:00,68.3,46.2,29.77,SE,140,6.0,12.0,45,0.00,,SKC,0.00,VWS V12.07,2013-04-08 02:14:00,
2013-04-07 21:20:00,68.3,46.2,29.77,SE,136,5.0,12.0,45,0.00,,SKC,0.00,VWS V12.07,2013-04-08 02:20:00,
2013-04-07 21:26:00,68.2,46.7,29.77,SSE,164,6.0,12.0,46,0.00,,SKC,0.00,VWS V12.07,2013-04-08 02:26:00,
2013-04-07 21:32:00,68.1,47.1,29.77,ESE,113,6.0,7.0,47,0.00,,SKC,0.00,VWS V12.07,2013-04-08 02:32:00,
2013-04-07 21:37:00,68.0,47.6,29.77,SE,134,6.0,9.0,48,0.00,,SKC,0.00,VWS V12.07,2013-04-08 02:37:00,
2013-04-07 21:44:00,67.9,48.1,29.76,SE,133,12.0,12.0,49,0.00,,SKC,0.00,VWS V12.07,2013-04-08 02:44:00,
2013-04-07 21:50:00,67.7,48.4,29.76,SSE,153,8.0,14.0,50,0.00,,SKC,0.00,VWS V12.07,2013-04-08 02:50:00,
2013-04-07 21:56:00,67.7,48.9,29.76,SSE,162,7.0,14.0,51,0.00,,SKC,0.00,VWS V12.07,2013-04-08 02:56:00,
2013-04-07 22:02:00,67.6,48.8,29.76,SE,134,8.0,13.0,51,0.00,,SKC,0.00,VWS V12.07,2013-04-08 03:02:00,
2013-04-07 22:07:00,67.6,49.4,29.76,SSE,151,6.0,13.0,52,0.00,,SKC,0.00,VWS V12.07,2013-04-08 03:07:00,
2013-04-07 22:14:00,67.6,49.9,29.76,SE,141,5.0,13.0,53,0.00,,SKC,0.00,VWS V12.07,2013-04-08 03:14:00,
2013-04-07 22:20:00,67.5,50.3,29.76,SSE,148,2.0,13.0,54,0.00,,SKC,0.00,VWS V12.07,2013-04-08 03:20:00,
2013-04-07 22:26:00,67.2,51.0,29.75,SE,133,3.0,13.0,56,0.00,,SKC,0.00,VWS V12.07,2013-04-08 03:26:00,
2013-04-07 22:32:00,67.2,51.5,29.75,SE,135,3.0,6.0,57,0.00,,SKC,0.00,VWS V12.07,2013-04-08 03:32:00,
2013-04-07 22:37:00,67.1,51.8,29.74,SE,146,5.0,12.0,58,0.00,,SKC,0.00,VWS V12.07,2013-04-08 03:37:00,
2013-04-07 22:44:00,66.8,52.0,29.75,SSE,166,4.0,12.0,59,0.00,,SKC,0.00,VWS V12.07,2013-04-08 03:44:00,
2013-04-07 22:50:00,66.7,51.9,29.74,SE,140,6.0,12.0,59,0.00,,SKC,0.00,VWS V12.07,2013-04-08 03:50:00,
2013-04-07 22:58:00,66.5,52.7,29.74,SE,125,5.0,12.0,61,0.00,,SKC,0.00,VWS V12.07,2013-04-08 03:58:00,
2013-04-07 23:00:00,66.4,53.0,29.74,SE,139,7.0,12.0,62,0.00,,SKC,0.00,VWS V12.07,2013-04-08 04:00:00,
2013-04-07 23:07:00,66.1,53.6,29.73,SSE,163,4.0,9.0,64,0.00,,SKC,0.00,VWS V12.07,2013-04-08 04:07:00,
2013-04-07 23:10:00,66.0,53.5,29.73,SE,125,4.0,9.0,64,0.00,,SKC,0.00,VWS V12.07,2013-04-08 04:10:00,
2013-04-07 23:11:00,66.0,53.5,29.74,SE,134,3.0,9.0,64,0.00,,SKC,0.00,VWS V12.07,2013-04-08 04:11:00,
2013-04-07 23:16:00,65.9,53.8,29.74,ESE,113,1.0,9.0,65,0.00,,SKC,0.00,VWS V12.07,2013-04-08 04:16:00,
2013-04-07 23:21:00,65.8,53.7,29.75,SSE,161,1.0,9.0,65,0.00,,SKC,0.00,VWS V12.07,2013-04-08 04:21:00,
2013-04-07 23:26:00,65.6,54.0,29.76,SSW,195,0.0,9.0,66,0.00,,SKC,0.00,VWS V12.07,2013-04-08 04:26:00,
2013-04-07 23:31:00,65.6,54.4,29.76,SW,215,0.0,1.0,67,0.00,,SKC,0.00,VWS V12.07,2013-04-08 04:31:00,
2013-04-07 23:37:00,65.0,56.2,29.77,SSW,212,0.0,4.0,73,0.01,,SKC,0.01,VWS V12.07,2013-04-08 04:37:00,
2013-04-07 23:44:00,63.7,55.6,29.75,SSE,160,0.0,4.0,75,0.02,,SKC,0.02,VWS V12.07,2013-04-08 04:44:00,
2013-04-07 23:50:00,62.7,56.1,29.74,SSE,150,2.0,4.0,79,0.04,,SKC,0.04,VWS V12.07,2013-04-08 04:50:00,
2013-04-07 23:56:00,61.8,56.2,29.74,SSE,150,2.0,6.0,82,0.04,,SKC,0.04,VWS V12.07,2013-04-08 04:56:00,